Terminal Aerodrome Forecast
Issued by NWS Milwaukee/Sullivan, WI

Home | Current Version | Previous Version | Text Only | Print | Product List | Glossary On
Versions: 1 2 3 4 5 6 7 8 9 10 11 12 13 14 15 16 17 18 19 20 21 22 23 24 25 26 27 28 29
000
FTUS43 KMKX 230524
TAFMKE
TAF
KMKE 230524Z 2306/2412 25013KT P6SM SKC
     FM230800 29007KT P6SM SKC
     FM231100 33006KT P6SM SCT006 BKN015
     FM231200 03012KT 5SM BR BKN006 OVC015
     FM231400 03010KT P6SM SCT006 OVC020
     FM231700 03012KT P6SM BKN040
     FM240300 03013KT 5SM -RA BR OVC015
     FM240600 05015G23KT 2SM RA BR OVC003=

USA.gov is the U.S. government's official web portal to all federal, state and local government web resources and services.